2023/08/18 00:00:00, 0.0,24.3
2023/08/18 00:10:00, 0.0,24.5
2023/08/18 00:20:00, 0.0,24.6
2023/08/18 00:30:00, 0.0,25.1
2023/08/18 00:40:00, 0.0,24.8
2023/08/18 00:50:00, 0.0,25.1
2023/08/18 01:00:00, 0.0,25.4
2023/08/18 01:10:00, 0.0,25.3
2023/08/18 01:20:00, 0.0,25.0
2023/08/18 01:30:00, 0.0,25.1
2023/08/18 01:40:00, 0.0,25.4
2023/08/18 01:50:00, 0.0,25.4
2023/08/18 02:00:00, 0.0,25.5
2023/08/18 02:10:00, 0.0,25.8
2023/08/18 02:20:00, 0.0,25.5
2023/08/18 02:30:00, 0.0,25.0
2023/08/18 02:40:00, 0.0,24.7
2023/08/18 02:50:00, 0.0,23.7
2023/08/18 03:00:00, 0.0,24.4
2023/08/18 03:10:00, 0.0,24.6
2023/08/18 03:20:00, 0.0,24.6
2023/08/18 03:30:00, 0.0,24.9
2023/08/18 03:40:00, 0.0,25.1
2023/08/18 03:50:00, 0.0,24.9
2023/08/18 04:00:00, 0.0,25.1
2023/08/18 04:10:00, 0.0,24.7
2023/08/18 04:20:00, 0.0,24.7
2023/08/18 04:30:00, 0.0,25.1
2023/08/18 04:40:00, 0.0,25.0
2023/08/18 04:50:00, 0.0,25.0
2023/08/18 05:00:00, 0.0,24.8
2023/08/18 05:10:00, 0.0,24.9
2023/08/18 05:20:00, 0.0,25.0
2023/08/18 05:30:00, 0.0,24.3
2023/08/18 05:40:00, 0.0,24.8
2023/08/18 05:50:00, 0.0,24.5
2023/08/18 06:00:00, 0.0,24.2
2023/08/18 06:10:00, 0.0,24.3
2023/08/18 06:20:00, 0.0,24.7
2023/08/18 06:30:00, 0.0,24.7
2023/08/18 06:40:00, 0.0,24.7
2023/08/18 06:50:00, 0.0,24.6
2023/08/18 07:00:00, 0.0,24.6
2023/08/18 07:10:00, 0.0,24.6
2023/08/18 07:20:00, 0.0,25.1
2023/08/18 07:30:00, 0.0,25.5
2023/08/18 07:40:00, 0.0,25.7
2023/08/18 07:50:00, 0.0,26.1
2023/08/18 08:00:00, 0.0,26.5
2023/08/18 08:10:00, 0.0,26.9
2023/08/18 08:20:00, 0.0,26.9
2023/08/18 08:30:00, 0.0,27.2
2023/08/18 08:40:00, 0.0,27.1
2023/08/18 08:50:00, 0.0,27.5
2023/08/18 09:00:00, 0.0,27.7
2023/08/18 09:10:00, 0.0,27.9
2023/08/18 09:20:00, 0.0,28.2
2023/08/18 09:30:00, 0.0,28.6
2023/08/18 09:40:00, 0.0,29.0
2023/08/18 09:50:00, 0.0,29.3
2023/08/18 10:00:00, 0.0,29.6
2023/08/18 10:10:00, 0.0,29.5
2023/08/18 10:20:00, 0.0,29.4
2023/08/18 10:30:00, 0.0,30.1
2023/08/18 10:40:00, 0.0,30.1
2023/08/18 10:50:00, 0.0,31.0
2023/08/18 11:00:00, 0.0,31.5
2023/08/18 11:10:00, 0.0,31.3
2023/08/18 11:20:00, 0.0,31.1
2023/08/18 11:30:00, 0.0,32.8
2023/08/18 11:40:00, 0.0,32.3
2023/08/18 11:50:00, 0.0,31.4
2023/08/18 12:00:00, 0.0,31.2
2023/08/18 12:10:00, 0.0,31.3
2023/08/18 12:20:00, 0.0,31.2
2023/08/18 12:30:00, 0.0,31.2
2023/08/18 12:40:00, 0.0,31.1
2023/08/18 12:50:00, 0.0,31.5
2023/08/18 13:00:00, 0.0,31.4
2023/08/18 13:10:00, 0.0,31.4
2023/08/18 13:20:00, 0.0,31.6
2023/08/18 13:30:00, 0.0,31.8
2023/08/18 13:40:00, 0.0,32.1
2023/08/18 13:50:00, 0.0,31.9
2023/08/18 14:00:00, 0.0,31.9
2023/08/18 14:10:00, 0.0,32.2
2023/08/18 14:20:00, 0.0,32.0
2023/08/18 14:30:00, 0.0,32.4
2023/08/18 14:40:00, 0.0,31.6
2023/08/18 14:50:00, 1.8,32.3
2023/08/18 15:00:00, 1.4,32.1
2023/08/18 15:10:00, 1.8,32.1
2023/08/18 15:20:00, 3.1,31.7
2023/08/18 15:30:00, 3.9,31.8
2023/08/18 15:40:00, 3.4,31.5
2023/08/18 15:50:00, 4.3,31.5
2023/08/18 16:00:00, 3.9,31.2
2023/08/18 16:10:00, 3.1,31.5
2023/08/18 16:20:00, 5.1,31.1
2023/08/18 16:30:00, 5.1,31.1
2023/08/18 16:40:00, 4.7,30.8
2023/08/18 16:50:00, 4.6,31.2
2023/08/18 17:00:00, 4.6,31.1
2023/08/18 17:10:00, 5.0,31.7
2023/08/18 17:20:00, 4.9,34.3
2023/08/18 17:30:00, 5.0,32.7
2023/08/18 17:40:00, 5.5,32.5
2023/08/18 17:50:00, 4.8,31.1
2023/08/18 18:00:00, 4.5,29.1
2023/08/18 18:10:00, 4.9,27.9
2023/08/18 18:20:00, 4.6,27.9
2023/08/18 18:30:00, 4.0,27.6
2023/08/18 18:40:00, 4.2,28.2
2023/08/18 18:50:00, 3.7,27.5
2023/08/18 19:00:00, 3.7,26.6
2023/08/18 19:10:00, 4.5,26.1
2023/08/18 19:20:00, 4.3,25.8
2023/08/18 19:30:00, 3.5,25.8
2023/08/18 19:40:00, 3.3,26.4
2023/08/18 19:50:00, 3.2,26.1
2023/08/18 20:00:00, 3.4,26.0
2023/08/18 20:10:00, 3.5,25.9
2023/08/18 20:20:00, 3.4,25.9
2023/08/18 20:30:00, 3.5,26.0
2023/08/18 20:40:00, 3.5,25.9
2023/08/18 20:50:00, 3.5,25.2
2023/08/18 21:00:00, 3.4,25.3
2023/08/18 21:10:00, 3.4,25.4
2023/08/18 21:20:00, 3.3,25.2
2023/08/18 21:30:00, 3.7,25.1
2023/08/18 21:40:00, 3.3,24.8
2023/08/18 21:50:00, 3.0,24.7
2023/08/18 22:00:00, 3.5,24.6
2023/08/18 22:10:00, 3.7,24.5
2023/08/18 22:20:00, 3.0,24.2
2023/08/18 22:30:00, 4.0,24.3
2023/08/18 22:40:00, 4.1,24.1
2023/08/18 22:50:00, 4.4,24.3
2023/08/18 23:00:00, 4.0,24.0
2023/08/18 23:10:00, 4.1,23.7
2023/08/18 23:20:00, 4.6,24.0
2023/08/18 23:30:00, 4.6,24.0
2023/08/18 23:40:00, 4.4,24.0
2023/08/18 23:50:00, 4.8,23.9
